Regional Weather Roundup
Issued by NWS

Home | Current Version | Previous Version | Text Only | Print | Product List | Glossary On
Versions: 1 2 3 4 5 6 7 8 9 10 11 12 13 14 15 16 17 18 19 20 21 22 23 24 25 26 27 28 29 30 31 32 33 34 35 36 37 38 39 40 41 42 43 44 45 46 47 48 49 50
066
ASHW40 PHFO 260912
RWRHI

WEATHER ROUNDUP FOR HAWAII
NATIONAL WEATHER SERVICE HONOLULU HI
1100 PM HST WED MAY 25 2016

THIS IS AN AUTOMATED REPORT THAT HAS NOT BEEN QUALITY CONTROLLED.

NOTE..."FAIR" INDICATES FEW OR NO CLOUDS BELOW 12,000 FEET WITH NO
SIGNIFICANT WEATHER AND/OR OBSTRUCTIONS TO VISIBILITY.

* - THESE SITES REPORT LIMITED FIELDS

HIZ001>004-261000-
KAUAI-NIIHAU-

CITY           SKY/WX    TMP DP  RH WIND       PRES   REMARKS
LIHUE APT      PTCLDY    75  69  81 NE10      30.12R
PORT ALLEN*      N/A     73 N/A N/A E10         N/A
POIPU*           N/A     73 N/A N/A N5          N/A
PRINCEVILLE*     N/A     72 N/A N/A S2          N/A
KOKOLE POINT*  NOT AVBL
MOLOAA DAIRY*    N/A     73  68  83 E3          N/A
WAIMEA HTS*    NOT AVBL
PUU OPAE*      NOT AVBL
PUU LUA*       NOT AVBL
MAKAHA RIDGE*  NOT AVBL
$$

HIZ005>011-261000-
OAHU-

CITY           SKY/WX    TMP DP  RH WIND       PRES   REMARKS
HONOLULU       PTCLDY    74  71  91 N6        30.09S
KALAELOA       CLOUDY    74  71  91 NE3       30.10S
KANEOHE MCB    MOCLDY    76  68  76 E6        30.07S
WHEELER FIELD  FAIR      71  67  88 VRB2      30.09S
BELLOWS*       NOT AVBL
KAHUKU*        NOT AVBL
WHEELER*       NOT AVBL
WAIANAE HARBOR NOT AVBL
DILLINGHAM*      N/A     70  66  88 MISG        N/A
KAHUKU TRN*      N/A     72  66  83 CALM        N/A
KAWAILOA*        N/A     70  66  88 E3          N/A
KII*             N/A     77  70  78 E16G23      N/A
MAKUA RANGE*     N/A     81  77  89 SE3         N/A
OAHU FOREST NW NOT AVBL
SCHOFIELD BRK*   N/A     68  64  88 MISG        N/A
SCHOFIELD S*   NOT AVBL
WAIANAE VLY*   NOT AVBL
KUAOKALA*      NOT AVBL
HONOULIUULI*   NOT AVBL
MOKUOLOE IS*   NOT AVBL
PALEHUA*       NOT AVBL
WAIAWA PHB*    NOT AVBL
$$

HIZ012>013-261000-
MOLOKAI-

CITY           SKY/WX    TMP DP  RH WIND       PRES   REMARKS
MOLOKAI AIRPT  CLOUDY    72  66  81 NE5       30.12R
KALAUPAPA      NOT AVBL
MAKAPULAPAI*   NOT AVBL
MOLOKAI 1*     NOT AVBL
PUU ALII*      NOT AVBL
$$

HIZ016-261000-
KAHOOLAWE-

CITY           SKY/WX    TMP DP  RH WIND       PRES   REMARKS
KAHOOLAWE*     NOT AVBL
HAKIOAWA*      NOT AVBL
HONOKANAIA*      N/A    N/A N/A N/A NE5       30.04R
KANELOA*         N/A     72  68  88 NE9G18    30.16R
KEALIALALO*    NOT AVBL
LUA MAKIKA*    NOT AVBL
$$

HIZ014>015-261000-
LANAI-

CITY           SKY/WX    TMP DP  RH WIND       PRES   REMARKS
LANAI CITY     CLOUDY    69  66  90 E7        30.16R
LANAI 1*       NOT AVBL
$$

HIZ017>028-261000-
MAUI-

CITY           SKY/WX    TMP DP  RH WIND       PRES   REMARKS
KAHULUI        CLEAR     69  67  93 SE5       30.10R
KAPALUA-W MAUI NOT AVBL
HANA AIRPORT   NOT AVBL
HANA*            N/A     72 N/A N/A S3          N/A
HALEAKALA SUMM   N/A     39  32  75 E15         N/A
MAALAEA BAY*   NOT AVBL
HALEAKALA*     NOT AVBL
KAUPO GAP*     NOT AVBL
KULA 1*          N/A     51  51  98 E3          N/A
$$

HIZ023>026-261000-
BIG ISLAND OF HAWAII COAST AND LOWER SLOPES-

CITY           SKY/WX    TMP DP  RH WIND       PRES   REMARKS
KAILUA KONA    MOCLDY    76  67  73 SE13      30.06R
HILO           MOCLDY    72  68  87 S3        30.11S
HONOKAA*         N/A     66 N/A N/A VRB1        N/A
KAWAIHAE MWT*    N/A     77 N/A N/A E6          N/A
KAWAIHAE*      NOT AVBL
SOUTH POINT*     N/A     68 N/A N/A NW10        N/A
UPOLU AIRPORT*   N/A    N/A N/A N/A E10G16      N/A
KAMUELA*       CLOUDY    63  63 100 CALM      30.19R
HAKALAU*         N/A     50  49  98 SW5         N/A
KALOKO-HONOKO* NOT AVBL
PALI 2*          N/A     63  59  88 W3          N/A
KEALAKOMO*       N/A     75  68  78 N2G10       N/A
KAUPULEHU*     NOT AVBL
KAPAPALA*        N/A     63  62  96 N3          N/A
LOWER KAHUKU*  NOT AVBL
PUHE CS*       NOT AVBL
PUHO CS*       NOT AVBL
PTA KEAMUKU*     N/A     61  59  94 CALM        N/A
WAIKOLOA*      NOT AVBL
$$

HIZ027>028-261000-
BIG ISLAND OF HAWAII INTERIOR AND SUMMMITS-

CITY           SKY/WX    TMP DP  RH WIND       PRES   REMARKS
BRADSHAW FIELD MOCLDY    53  50  89 S6        30.39S
MK VISITOR CEN   N/A     43  39  87 NE1         N/A
MAUNA KEA*       N/A     30  28  93 CALM        N/A
MAUNA LOA*     NOT AVBL
MAUNA LOA 1*   NOT AVBL
PTA KIPUKA*      N/A     55  55 100 E3          N/A
PTA RANGE 17*    N/A     55  50  82 E6G13       N/A
PTA WEST*      NOT AVBL
NENE CABIN*    NOT AVBL
AHUMOA*        NOT AVBL
PTA PORTABLE*  NOT AVBL
PUU MALI*        N/A     52  52 100 SW6G12      N/A
$$

HIC003-261000-
NORTHWEST ISLANDS-

CITY           SKY/WX    TMP DP  RH WIND       PRES   REMARKS
MIDWAY ISLAND  PTCLDY    72  70  94 NE3       30.13R
MIDWAY NOS*    NOT AVBL
FRENCH FRIGATE NOT AVBL
$$

PHZ110>124-180-261000-
BUOY REPORTS

STATION/POSITION TIME  TEMP    WIND        PRES    WAVE   SWELL
                       AIR SEA DIR/SP/G            HT/PER HT/DIR
                 (UTC) (F)     (DEG/KT/KT) (MB)    (FT/S) (FT/D)
BUOY 51001       0800   78 80   60/ 12/ 16 1018.4R
BUOY 51101       0850   75 78   70/ 12/ 14 1019.6R   4/ 8   3/ 90
BUOY 51100       NOT AVBL
BUOY 51002       0850   78 79  100/ 12/ 14 1018.1R   5/ 8   3/ 80
BUOY 51003       0750   78 80   70/  8/ 10 1017.9    4/ 8   3/ 80
BUOY 51004       0850   78 79   90/ 12/ 16 1018.6F   5/ 7   5/ 80
BARBERS PT BUOY  NOT AVBL
WAIMEA BAY BUOY  0804      78                N/A     3/ 8
KAILUA BAY BUOY  0811      78                N/A     5/ 7   2/ 50
LANAI BUOY       0815      79                N/A     3/13   2/200
BARBERS PT 2     0803      79                N/A     3/13   2/190
PAUWELA MAUI     0809      78                N/A     5/ 8
HILO             0812      79                N/A     5/ 8   2/ 60
KANEOHE BAY BUOY 0806      77                N/A     5/ 6
HANALEI KAUAI    NOT AVBL
KAHULUI HARBOR   0800   76 78   20/ 12/ 14 1018.7R
HONOLULU HARBOR  0800   76 80  100/  4/  6 1019.5R
KILO NALU        NOT AVBL
HILO HARBOR      0800   72 78  210/  4/  5 1019.0R
MOKUOLOE         0800   74 80  150/  3/ 10 1019.0
NAWILIWILI       0800   76 81   40/  5/  8 1019.1R
WHOTS BUOY       NOT AVBL
BUOY 51028       NOT AVBL
$$

......................KEY........................................
  SKY/WX - SKY CONDITIONS/PRESENT WEATHER
  TMP    - TEMPERATURE IN FAHRENHEIT
  DWPT   - DEWPOINT IN FAHRENHEIT
  RH     - RELATIVE HUMIDITY IN PERCENT
  WIND   - DIRECTION AND SPEED /MPH FOR ISLANDS...KTS FOR BUOYS/
  PRES   - MEAN SEA LEVEL PRESSURE IN INCHES OF HG
  VSB    - VISIBILITY IN MILES
  HX     - HEAT INDEX
  WCI    - WIND CHILL INDEX
  VRB    - VARIABLE WIND DIRECTION
  N/A    - NOT AVAILABLE




USA.gov is the U.S. government's official web portal to all federal, state and local government web resources and services.